Location: *
(60.1759°S, 155.0663°W)
Time: 14:44:13
(UTC+00:00)

Cosmos 2237 Rocket - Pass Details

Date: 17 September 2019
Orbit: 833 x 852 km, 71.0° (Epoch: 20 October)

Event Time Altitude Azimuth Distance (km) Brightness Sun altitude
Exits shadow 13:51:39 - 241° (WSW) 2,582 4.4 -18.9°
Reaches altitude 10° 13:51:56 10° 239° (WSW) 2,494 4.4 -18.9°
Maximum altitude 13:56:50 28° 180° (S) 1,557 3.9 -18.4°
Drops below altitude 10° 14:01:42 10° 122° (ESE) 2,485 5.9 -17.8°
Sets 14:04:31 0° 110° (ESE) 3,417 7.0 -17.5°
